Theta_e
311 308 306 304 299 299 296 295 295 293 292 291 292 290 289 290 291 291 291 290 290 290
307 305 301 299 300 296 295 293 292 291 290 289 288 288 289 290 289 290 290 290 289 289
303 301 298 297 296 293 292 291 290 290 290 288 288 288 288 289 288 289 289 288 287 286
297 297 296 294 293 292 291 291 291 289 289 288 287 287 287 288 288 287 286 285 285 284
295 294 293 292 292 292 291 291 291 290 289 288 287 287 287 287 286 286 285 284 284 284
293 293 292 292 292 292 291 291 290 289 288 287 288 287 287 286 286 285 285 284 284 284
294 294 293 292 291 291 290 289 289 288 287 287 287 286 286 285 285 285 284 285 285 284
292 292 291 290 289 288 288 288 288 287 287 286 286 285 285 284 284 284 284 285 284 284
291 289 288 288 287 286 286 286 286 285 285 285 285 286 286 286 284 284 283 283 284 283
288 286 285 285 284 283 284 284 283 284 284 284 285 286 287 287 286 285 284 283 283 282
286 285 283 283 283 283 283 283 282 282 283 282 282 285 286 286 286 286 286 285 284 283
285 284 283 283 283 283 282 282 282 281 281 281 282 284 285 285 284 283 284 284 285 284
285 285 284 283 283 283 282 281 280 281 282 282 282 283 284 284 283 282 282 283 283 283
283 283 283 283 282 282 282 281 281 280 281 281 281 281 283 284 283 282 282 282 283 283
Wind_Speed
14 9 9 11 9 8 7 7 7 6 7 6 7 6 4 3 3 4 4 6 4 3
12 13 11 10 10 8 8 8 8 7 6 7 6 4 3 3 3 4 3 4 4 3
12 10 11 10 12 11 9 8 10 8 6 5 4 2 3 4 4 4 3 3 4 3
11 11 10 10 9 11 10 9 4 8 7 5 5 6 5 6 5 5 4 4 5 5
12 12 12 11 12 13 9 5 7 5 5 6 7 7 7 6 6 6 6 6 6 7
12 11 10 12 11 10 9 6 4 5 5 7 8 7 6 7 7 7 6 6 8 8
13 11 9 8 8 9 6 5 6 6 7 7 6 5 6 7 6 6 6 8 9 10
11 10 10 6 5 5 5 5 5 5 5 5 6 6 8 7 7 8 9 10 11 11
11 8 6 5 5 4 4 4 4 6 5 7 5 9 11 8 7 9 10 10 11 11
6 6 5 3 4 4 3 3 4 3 4 7 7 9 12 12 8 9 11 11 10 9
5 5 5 4 4 3 2 3 3 4 5 6 5 11 13 13 11 11 12 11 11 13
3 4 3 3 2 1 2 3 4 4 5 6 7 11 14 13 9 10 13 12 13 13
4 5 4 2 1 1 1 3 3 4 5 6 10 11 13 12 7 10 9 11 13 18
8 7 6 4 3 3 4 4 4 5 6 7 7 11 14 15 9 9 9 10 9 9
Wind_Direction
169 171 171 175 168 169 164 153 147 144 133 116 124 120 116 101 125 127 152 133 140 149
161 162 162 156 162 152 139 135 134 125 136 116 112 107 133 126 161 158 145 132 156 172
156 151 146 144 153 137 127 127 131 119 124 104 113 134 165 167 182 172 152 163 181 178
135 132 133 134 128 118 116 115 121 128 142 145 170 194 193 201 187 188 173 191 198 207
121 123 126 128 121 115 114 123 138 172 149 162 206 196 207 200 210 202 204 208 217 221
106 109 115 108 123 110 122 152 146 169 188 196 209 199 204 217 217 216 225 224 227 230
119 121 116 115 123 124 142 153 183 185 198 206 208 215 217 220 227 232 236 238 237 238
102 104 95 109 116 127 131 167 191 179 209 210 215 219 218 221 228 239 245 244 244 244
97 102 118 127 127 136 151 163 182 209 214 223 226 229 227 228 237 239 246 253 249 247
98 95 101 129 135 147 159 176 208 228 237 250 250 245 242 240 245 249 249 249 247 251
103 118 132 145 151 143 162 210 223 235 240 254 249 250 253 249 248 249 248 248 247 249
104 121 132 141 140 141 217 229 230 229 245 257 271 251 255 257 251 250 253 252 248 249
67 83 78 92 141 190 251 285 292 281 260 262 276 277 272 268 260 258 257 258 259 251
29 35 27 11 24 2 337 323 310 295 289 275 269 281 284 278 265 262 268 262 263 264